[[{"header":{"parameterUnit":"m.s-1","parameterCategory":1,"la1":30.2991,"la2":30.254,"lo1":-89.0895,"lo2":-89.0444,"dy":0.0017,"dx":0.0017,"nx":28,"ny":28,"refTime":"2025-08-08T03:00:00:Z","depth":0,"parameterNumber":2,"parameterNumberName":"U-component_of_WINDS"},"data":[0,0,0,0,0,0,0,0,0,0,0,0,0,0,0,0,0,0,0,0,0,0,0,0,0,0,0,0,0,0,0,0,0,0,0,0,0,0,0,0,0,0,0,0,0,0,0,0,0,0,0,0,0,0,0,0,0,0,-5.9689,-5.9689,0,-5.9715,-5.9715,-5.9715,-5.959,-5.9586,-5.9583,-5.9579,-5.9603,-5.9607,-5.9611,0,0,0,0,0,0,0,0,0,0,0,0,0,-5.9531,-5.9534,-5.9689,-5.9689,-5.9689,-5.9715,-5.9715,-5.9715,-5.9591,-5.9586,-5.9582,-5.9578,-5.9602,-5.9606,-5.9611,0,0,0,0,0,0,0,0,0,0,0,0,0,-5.9582,-5.9535,-5.9689,-5.963,-5.9625,-5.9715,-5.9715,-5.9715,-5.9592,-5.9586,-5.9581,-5.9576,-5.96,-5.9606,-5.9612,-5.9757,0,0,-5.963,-5.9633,0,0,0,0,0,0,0,0,-5.9579,-5.9588,-5.9638,-5.9634,-5.9629,-5.9644,-5.9668,-5.9729,-5.9593,-5.9604,-5.9579,-5.9573,-5.9621,-5.9625,-5.9641,-5.9758,-5.9759,-5.9631,-5.9634,-5.9637,-5.9638,0,0,0,0,0,0,0,-5.9576,-5.9586,-5.9699,-5.9639,-5.9634,-5.9603,-5.9604,-5.9679,-5.9642,-5.9603,-5.9594,-5.9599,-5.9617,-5.9636,-5.9641,-5.976,-5.963,-5.9636,-5.9639,-5.9642,-6.0001,-6.0006,0,0,0,0,0,0,-5.958,-5.9584,-5.9698,-5.9699,-5.959,-5.961,-5.9611,-5.9644,-5.9641,-5.9636,-5.9603,-5.9593,-5.9628,-5.9634,-5.9641,-5.9813,-5.9637,-5.9642,-5.9646,-5.9995,-6.0002,-6.0008,0,0,0,0,0,0,-5.9577,-5.9592,-5.9697,-5.9639,-5.965,-5.9618,-5.9656,-5.9648,-5.9666,-5.9642,-5.9634,-5.9629,-5.9624,-5.9633,-5.973,-5.9812,-5.9645,-5.9651,-5.9988,-5.9997,-6.0005,-6.0156,0,0,0,0,0,0,-5.9573,-5.9591,-5.9646,-5.9642,-5.9654,-5.9786,-5.9661,-5.9652,-5.9677,-5.9664,-5.9664,-5.9659,-5.9621,-5.9722,-5.9736,-5.9817,-5.9655,-5.998,-5.9992,-6.0002,-6.0144,-6.0169,-6.0191,0,0,0,0,0,-5.9568,-5.9686,-5.965,-5.9664,-5.9722,-5.9791,-5.9798,-5.9752,-5.9684,-5.9739,-5.9724,-5.9659,-5.9801,-5.9733,-5.9748,-5.9832,-5.9975,-5.9989,-6.0002,-6.0133,-6.0164,-6.019,0,0,0,0,0,0,-5.9699,-5.9684,-5.9643,-5.9764,-5.978,-5.9769,-5.9837,-5.9786,-5.982,-5.9806,-5.9747,-5.9748,-5.9856,-5.9854,-5.9778,-5.9974,-5.9876,-5.9893,-5.9971,-6.0,-6.0024,-6.0021,-5.966,0,0,0,0,0,-5.9742,-5.98,-5.9784,-5.9892,-5.9902,-5.9869,-5.9897,-5.9861,-5.9875,-5.988,-5.9872,-5.9887,-5.9935,-5.9968,-6.0011,-6.0144,-6.0143,-6.0209,-6.0233,-6.0252,-6.0267,-6.0339,-6.0369,-6.0052,-6.0052,-6.0052,0,0,-5.9831,-5.983,-5.987,-5.9918,-5.9926,-5.9987,-5.9875,-5.9943,-5.9988,-5.989,-5.9982,-5.9978,-5.9991,-6.0107,-6.0158,-6.0108,-6.0355,-6.0269,-6.0285,-6.0289,-6.0356,-6.0386,-6.0413,-6.0061,-6.006,-6.0058,0,0,-6.0024,-6.0029,-6.012,-6.0132,-6.0147,-6.0125,-6.0147,-6.0146,-6.014,-6.0232,-6.016,-6.0213,-6.0297,-6.031,-6.0327,-6.0531,-6.0473,-6.0547,-6.0669,-6.074,-6.0765,-6.0787,-6.086,-6.0887,-6.0562,-6.0563,-6.0563,0,-6.0131,-6.0221,-6.0173,-6.0248,-6.0272,-6.0189,-6.0282,-6.0295,-6.0323,-6.0341,-6.0286,-6.0392,-6.0394,-6.0514,-6.0564,-6.0581,-6.0605,-6.0545,-6.0766,-6.0787,-6.0807,-6.0876,-6.0903,-6.0572,-6.0571,-6.057,-6.0569,0,-6.0354,-6.0418,-6.049,-6.0521,-6.0553,-6.0637,-6.0602,-6.064,-6.0603,-6.0587,-6.0683,-6.0685,-6.0728,-6.0754,-6.0717,-6.0869,-6.0838,-6.0776,-6.0676,-6.0847,-6.091,-6.0936,-6.0584,-6.0581,-6.0578,-6.0576,0,0,-6.0625,-6.0633,-6.066,-6.0675,-6.0687,-6.0735,-6.0816,-6.086,-6.0895,-6.0918,-6.0984,-6.106,-6.1003,-6.1023,-6.0988,-6.1051,-6.1213,-6.098,-6.0979,-6.1023,-6.1382,-6.1429,-6.146,-6.1176,-6.1181,-6.1185,-6.1381,0,-6.0814,-6.0952,-6.0914,-6.1052,-6.1112,-6.1036,-6.1107,-6.1123,-6.1112,-6.116,-6.1147,-6.1202,-6.1122,-6.1134,-6.1193,-6.1181,-6.1284,-6.1167,-6.1236,-6.124,-6.1234,-6.1493,-6.1542,-6.1727,-6.1406,-6.141,-6.1413,0,-6.1052,-6.1087,-6.1233,-6.1239,-6.1262,-6.1326,-6.1365,-6.1413,-6.143,-6.1417,-6.1443,-6.1396,-6.1476,-6.1379,-6.1488,-6.1409,-6.1436,-6.1435,-6.1441,-6.1444,-6.1335,-6.1503,-6.1785,-6.1812,-6.1452,-6.1449,-6.1446,0,-6.1235,-6.132,-6.1418,-6.1433,-6.1442,-6.149,-6.1496,-6.1508,-6.1538,-6.1572,-6.1591,-6.1634,-6.1657,-6.1691,-6.1658,-6.159,-6.1774,-6.1672,-6.1765,-6.1766,-6.1805,-6.1802,-6.2094,-6.1825,-6.1825,-6.1824,-6.1824,0,-6.1449,-6.1541,-6.1501,-6.1561,-6.1663,-6.1619,-6.172,-6.1717,-6.173,-6.1789,-6.1727,-6.1783,-6.1736,-6.1788,-6.1762,-6.1858,-6.1869,-6.1861,-6.1853,-6.1866,-6.1867,-6.1881,-6.1867,-6.1831,-6.183,-6.1828,-6.1827,0,-6.167,-6.1647,-6.1749,-6.1752,-6.1755,-6.1829,-6.1831,-6.1887,-6.1874,-6.1949,-6.1964,-6.1942,-6.2001,-6.1972,-6.2032,-6.2015,-6.2139,-6.2114,-6.2134,-6.2127,-6.2221,-6.2212,-6.253,-6.257,-6.2277,-6.228,-6.2282,0,-6.1807,-6.1877,-6.1888,-6.1924,-6.1935,-6.1993,-6.2025,-6.1986,-6.2021,-6.2049,-6.2102,-6.2156,-6.2197,-6.2295,-6.2284,-6.2331,-6.2306,-6.2415,-6.2312,-6.2324,-6.2307,-6.2303,-6.231,-6.2434,-6.2438,-6.2441,-6.2443,0,-6.2054,-6.204,-6.2088,-6.2134,-6.2174,-6.2208,-6.2236,-6.2269,-6.2231,-6.2274,-6.2335,-6.2367,-6.2431,-6.2486,-6.2528,-6.2534,-6.2483,-6.2476,-6.25,-6.2513,-6.2521,-6.2518,-6.2189,-6.2468,-6.2465,-6.2464,-6.2462,-6.2461,-6.2236,-6.2295,-6.2314,-6.237,-6.2389,-6.2418,-6.2471,-6.2466,-6.2517,-6.2567,-6.2541,-6.2612,-6.2631,-6.2682,-6.2696,-6.2751,-6.2707,-6.2742,-6.275,-6.2759,-6.2772,-6.2515,-6.2758,-6.2757,-6.2757,-6.2756,-6.2756,0,-6.2479,-6.2488,-6.2541,-6.2584,-6.263,-6.2581,-6.2611,-6.2652,-6.2716,-6.2738,-6.2782,-6.2853,-6.2907,-6.2903,-6.2952,-6.2998,-6.2976,-6.3012,-6.3007,-6.301,-6.2808,-6.2782,-6.3029,-6.3029,-6.3029,-6.3029,-6.3029,-6.3029,-6.261,-6.2708,-6.2698,-6.2805,-6.2813,-6.2884,-6.2906,-6.2933,-6.2951,-6.3034,-6.308,-6.3077,-6.3089,-6.314,-6.3188,-6.3186,-6.3206,-6.3252,-6.324,-6.3051,-6.3024,-6.2998,-6.2973,-6.3257,-6.3257,-6.3438,-6.3439,-6.3441]},{"header":{"parameterUnit":"m.s-1","parameterCategory":1,"la1":30.2991,"la2":30.254,"lo1":-89.0895,"lo2":-89.0444,"dy":0.0017,"dx":0.0017,"nx":28,"ny":28,"refTime":"2025-08-08T03:00:00:Z","depth":0,"parameterNumber":3,"parameterNumberName":"V-component_of_WINDS"},"data":[0,0,0,0,0,0,0,0,0,0,0,0,0,0,0,0,0,0,0,0,0,0,0,0,0,0,0,0,0,0,0,0,0,0,0,0,0,0,0,0,0,0,0,0,0,0,0,0,0,0,0,0,0,0,0,0,0,0,0.7138,0.7139,0,0.7176,0.7177,0.7177,0.7213,0.7213,0.7214,0.7214,0.7249,0.725,0.725,0,0,0,0,0,0,0,0,0,0,0,0,0,0.7096,0.7097,0.7138,0.7139,0.7139,0.7176,0.7177,0.7177,0.7213,0.7213,0.7214,0.7214,0.7249,0.725,0.725,0,0,0,0,0,0,0,0,0,0,0,0,0,0.7122,0.7097,0.7138,0.7162,0.7164,0.7176,0.7177,0.7177,0.7213,0.7213,0.7214,0.7215,0.7249,0.725,0.725,0.7241,0,0,0.7253,0.7253,0,0,0,0,0,0,0,0,0.7121,0.7124,0.7158,0.716,0.7163,0.7191,0.7175,0.7199,0.7213,0.7194,0.7214,0.7215,0.7229,0.7231,0.7237,0.7243,0.7244,0.7253,0.7253,0.7254,0.7254,0,0,0,0,0,0,0,0.7119,0.7122,0.7153,0.7158,0.7161,0.717,0.7174,0.7179,0.7207,0.7196,0.7198,0.7203,0.723,0.7236,0.7238,0.7245,0.7253,0.7253,0.7254,0.7254,0.7248,0.7247,0,0,0,0,0,0,0.7114,0.712,0.7152,0.7154,0.7143,0.717,0.7175,0.7181,0.7207,0.7212,0.7202,0.7204,0.7234,0.7237,0.7239,0.7232,0.7254,0.7254,0.7255,0.7249,0.7248,0.7247,0,0,0,0,0,0,0.7113,0.7116,0.7151,0.7138,0.7143,0.717,0.7176,0.7181,0.7187,0.7212,0.7217,0.7203,0.7235,0.7238,0.7241,0.7233,0.7255,0.7255,0.7249,0.7248,0.7248,0.7215,0,0,0,0,0,0,0.7111,0.7116,0.7112,0.7138,0.7144,0.7152,0.7176,0.7182,0.7189,0.7192,0.7214,0.7218,0.7236,0.724,0.7242,0.7235,0.7256,0.725,0.7249,0.7248,0.7217,0.7213,0.721,0,0,0,0,0,0.711,0.71,0.7112,0.7115,0.714,0.7151,0.7155,0.7176,0.7188,0.7185,0.7202,0.7217,0.7234,0.724,0.7243,0.7235,0.7251,0.7249,0.7248,0.7219,0.7214,0.721,0,0,0,0,0,0,0.7071,0.7104,0.7117,0.7116,0.7131,0.7157,0.7154,0.717,0.7181,0.7184,0.7209,0.7214,0.7214,0.7225,0.7231,0.7229,0.7245,0.7244,0.7222,0.7218,0.7214,0.7211,0.7257,0,0,0,0,0,0.7062,0.7069,0.7098,0.7094,0.7101,0.7126,0.7132,0.7148,0.7164,0.717,0.7186,0.72,0.7209,0.7214,0.7223,0.722,0.7225,0.7216,0.7213,0.721,0.7208,0.7209,0.7205,0.7243,0.7243,0.7243,0,0,0.7044,0.7063,0.7066,0.7087,0.71,0.7106,0.7131,0.7136,0.7141,0.717,0.7174,0.7188,0.7205,0.7205,0.7206,0.7215,0.72,0.7208,0.7205,0.7205,0.7207,0.7203,0.72,0.7242,0.7242,0.7242,0,0,0.7014,0.703,0.7029,0.7043,0.7064,0.7082,0.7082,0.7107,0.7117,0.7123,0.7145,0.7152,0.7166,0.7178,0.7186,0.7166,0.7181,0.7168,0.7149,0.7149,0.7146,0.7144,0.7137,0.7134,0.7167,0.7167,0.7166,0,0.6989,0.7,0.7026,0.7031,0.704,0.7069,0.7069,0.7081,0.7103,0.7109,0.7119,0.7139,0.7153,0.7157,0.7153,0.7158,0.7159,0.7164,0.7145,0.7142,0.714,0.7134,0.7131,0.7165,0.7165,0.7165,0.7165,0,0.6968,0.6976,0.6973,0.6996,0.7005,0.7007,0.7034,0.704,0.7056,0.7073,0.7079,0.7097,0.7112,0.7115,0.7129,0.7122,0.7126,0.714,0.7156,0.7135,0.7129,0.7127,0.7162,0.7163,0.7163,0.7164,0,0,0.6911,0.6952,0.6951,0.6963,0.699,0.6996,0.7001,0.7017,0.7022,0.7037,0.7042,0.7055,0.7069,0.7078,0.7095,0.7095,0.7079,0.711,0.711,0.7103,0.7073,0.7062,0.7059,0.7091,0.7091,0.709,0.7072,0,0.6886,0.6897,0.6922,0.6924,0.6933,0.6962,0.6966,0.6984,0.7,0.701,0.7028,0.7037,0.7054,0.7061,0.7063,0.7081,0.7074,0.7083,0.7095,0.7095,0.7088,0.7056,0.7044,0.7025,0.707,0.707,0.7069,0,0.6857,0.6873,0.6877,0.6906,0.6911,0.6914,0.6932,0.6941,0.6962,0.6974,0.6986,0.7006,0.7013,0.7029,0.7039,0.7045,0.7052,0.7062,0.7062,0.7063,0.708,0.7056,0.702,0.7017,0.7066,0.7066,0.7067,0,0.6816,0.6838,0.6844,0.6854,0.6888,0.689,0.6904,0.6926,0.6935,0.6951,0.6957,0.6973,0.6982,0.6994,0.7018,0.7027,0.7025,0.7043,0.7036,0.7035,0.7032,0.7032,0.6996,0.7038,0.7038,0.7038,0.7038,0,0.6784,0.6785,0.6827,0.683,0.6833,0.6863,0.6864,0.6881,0.6901,0.6909,0.6935,0.6941,0.6973,0.6983,0.7002,0.7008,0.7012,0.7022,0.7027,0.7019,0.7018,0.7023,0.7024,0.7037,0.7037,0.7038,0.7038,0,0.6737,0.6765,0.6774,0.6807,0.6816,0.6816,0.6844,0.6849,0.6869,0.6878,0.6882,0.6913,0.6926,0.6952,0.6972,0.6985,0.6987,0.6996,0.698,0.6983,0.6974,0.6974,0.6939,0.6937,0.698,0.698,0.698,0,0.6715,0.6717,0.6752,0.6759,0.6773,0.6785,0.6795,0.6826,0.6835,0.6861,0.6863,0.6879,0.6894,0.6914,0.6938,0.6954,0.6963,0.695,0.6965,0.6958,0.6963,0.6962,0.6963,0.6946,0.6945,0.6945,0.6944,0,0.6672,0.6687,0.6701,0.6721,0.6733,0.675,0.6768,0.6772,0.6807,0.6817,0.6832,0.6844,0.6866,0.6882,0.6903,0.6917,0.6936,0.694,0.6939,0.693,0.6921,0.6926,0.697,0.694,0.694,0.6941,0.6941,0.6941,0.6637,0.6641,0.6666,0.6682,0.67,0.6717,0.6724,0.6746,0.676,0.6781,0.6799,0.6813,0.6836,0.6866,0.688,0.6892,0.6901,0.6899,0.6899,0.6898,0.6895,0.6921,0.6895,0.6896,0.6896,0.6896,0.6896,0,0.6595,0.6614,0.6629,0.6655,0.6667,0.6687,0.6709,0.6718,0.6731,0.6752,0.6767,0.6785,0.6802,0.6829,0.6847,0.6852,0.6861,0.6855,0.6855,0.6858,0.6885,0.6884,0.6848,0.6848,0.6848,0.6848,0.6848,0.6848,0.6575,0.6583,0.6601,0.6619,0.6639,0.6654,0.6665,0.6681,0.6698,0.6718,0.6733,0.6751,0.6775,0.6796,0.6813,0.682,0.6825,0.6817,0.6827,0.6851,0.6856,0.686,0.6859,0.6818,0.6818,0.6799,0.6798,0.6798]}]]